Regional Weather Roundup
Issued by NWS

Home | Current Version | Previous Version | Text Only | Print | Product List | Glossary On
Versions: 1 2 3 4 5 6 7 8 9 10 11 12 13 14 15 16 17 18 19 20 21 22 23 24 25 26 27 28 29 30 31 32 33 34 35 36 37 38 39 40 41 42 43 44 45 46 47 48 49 50
335
ASUS43 KLSX 241857
RWRMO

WEATHER SUMMARY FOR MISSOURI
NATIONAL WEATHER SERVICE SPRINGFIELD MO
100 PM CST TUE JAN 24 2017

NOTE: "FAIR" INDICATES FEW OR NO CLOUDS BELOW 12,000 FEET WITH NO
       SIGNIFICANT WEATHER AND/OR OBSTRUCTIONS TO VISIBILITY.
       CURRENT SKY AND/OR WEATHER CONDITIONS ARE NOT AVAILABLE FOR
       CHILLICOTHE AND FARMINGTON.

MOZ001>031-035>038-043-044-053-054-242000-
...NORTHERN AND WESTERN MISSOURI...

CITY           SKY/WX    TMP DP  RH WIND       PRES   REMARKS
KANSAS CTY INT CLOUDY    39  33  79 E21G30    29.52F WCI  29
LEE`S SUMMIT   MOSUNNY   45  37  73 E15       29.54F
ST JOSEPH      CLOUDY    38  35  89 E18G26    29.54F WCI  28
CHILLICOTHE      N/A     38  33  82 E12G22    29.64F

$$
MOZ066>068-077>081-088>096-101>105-242000-
...SOUTHWEST MISSOURI...

CITY           SKY/WX    TMP DP  RH WIND       PRES   REMARKS
SPRINGFIELD    SUNNY     58  38  47 SE24G32   29.57F
JOPLIN         SUNNY     69  37  30 S24G35    29.52F
BRANSON        MOSUNNY   64  36  34 SE14G24   29.65F

$$
MOZ032>034-039>042-045>050-055>058-069>072-242000-
...CENTRAL MISSOURI...

CITY           SKY/WX    TMP DP  RH WIND       PRES   REMARKS
COLUMBIA       NOT AVBL
JEFFERSON CITY PTSUNNY   48  37  65 SE13      29.68F
ROLLA          LGT RAIN  52  36  54 SE21G28   29.68F
SEDALIA        MOSUNNY   48  39  71 E15G25    29.63F
WARRENSBURG    CLOUDY    46  37  71 E12       29.59F

$$
MOZ051-052-059>065-242000-
...EAST CENTRAL MISSOURI...

CITY           SKY/WX    TMP DP  RH WIND       PRES   REMARKS
ST LOUIS INTL  PTSUNNY   49  34  56 SE13      29.80F

$$
MOZ072>076-082>087-097>100-106>115-242000-
...SOUTH CENTRAL AND SOUTHEAST MISSOURI...

CITY           SKY/WX    TMP DP  RH WIND       PRES   REMARKS
CAPE GIRARDEAU NOT AVBL
POPLAR BLUFF   SUNNY     49  40  71 SE8       29.85F
WEST PLAINS    SUNNY     53  37  54 SE16G26   29.75F

$$



USA.gov is the U.S. government's official web portal to all federal, state and local government web resources and services.